Theta_e
295 298 301 301 301 302 296 296 295 298 296 304 309 313 314 319 329 330 329 330 331 332 333 336 340 337 336 338 339 340 339 339 338 340 342 345 348 348 349 348 348 348 347 346
295 300 301 301 302 305 306 301 302 305 304 312 314 317 317 324 327 326 325 328 330 333 334 335 337 340 342 342 343 343 339 339 343 345 347 345 345 348 346 347 347 348 347 348
291 298 298 294 300 308 312 313 310 303 306 318 318 321 322 324 323 322 325 328 329 330 331 334 337 340 339 341 345 342 342 343 343 345 345 344 345 344 343 345 345 344 346 345
291 294 288 297 310 313 313 316 315 314 318 319 318 320 322 324 322 321 323 325 326 327 331 334 338 340 339 338 338 340 339 339 340 342 341 343 340 338 340 340 341 343 340 341
292 290 294 304 312 307 310 310 318 316 320 318 321 320 319 324 324 324 323 323 324 325 326 328 332 338 336 332 331 332 334 334 335 339 340 342 339 337 339 339 332 331 332 332
291 290 290 299 311 316 314 303 317 320 319 318 319 310 314 323 326 325 324 323 323 324 324 323 325 326 325 329 328 328 332 334 334 336 337 340 342 340 337 334 332 333 331 333
292 292 296 304 314 317 301 303 318 322 320 319 315 317 320 326 325 326 326 324 323 323 321 322 323 326 324 323 322 326 331 331 332 333 334 337 340 343 336 333 332 332 331 329
294 293 294 312 314 305 309 315 319 321 321 320 320 320 323 324 321 316 318 322 323 320 320 321 322 324 324 323 326 327 328 328 329 331 332 334 336 335 340 335 330 329 327 326
299 299 306 308 310 314 313 314 314 316 316 317 315 315 315 312 313 317 319 317 318 317 317 318 319 322 322 324 326 325 327 327 328 329 329 330 331 331 335 334 329 326 326 325
301 303 306 308 312 312 312 310 311 312 313 312 311 313 311 311 313 315 315 315 316 316 316 317 319 320 320 322 325 326 325 326 326 326 325 327 330 330 330 334 332 327 325 325
300 303 307 310 311 312 312 313 313 313 314 313 313 313 313 312 312 312 313 316 318 319 318 319 321 322 324 325 325 323 324 323 323 324 323 324 326 327 327 331 331 331 329 326
299 305 305 306 310 313 312 312 313 313 314 315 315 313 314 312 313 316 318 318 316 316 315 316 318 319 321 323 323 321 320 321 320 321 322 323 323 325 316 313 309 308 308 316
305 306 308 310 313 314 312 313 315 314 314 314 315 314 316 314 315 315 317 316 315 315 316 317 318 319 321 323 323 321 320 320 321 319 322 323 324 324 325 325 307 304 303 302
309 310 308 311 310 314 314 315 315 316 315 315 315 317 316 315 315 315 314 315 316 316 317 318 318 319 322 323 322 321 320 314 320 321 322 324 324 325 326 326 324 325 313 307
310 310 309 310 311 312 314 314 313 312 313 315 316 315 315 314 313 314 315 316 316 316 316 316 316 318 321 321 320 320 320 321 321 322 322 322 324 324 324 324 324 325 327 311
309 310 310 310 310 312 313 313 311 311 312 314 314 314 314 313 314 315 315 315 313 313 315 316 317 319 320 321 321 320 321 319 319 322 323 322 322 322 323 323 324 325 326 327
308 306 307 308 310 311 312 312 312 312 313 312 312 313 314 314 314 313 313 314 314 314 316 317 317 321 321 321 321 321 321 322 322 322 322 322 322 322 323 323 323 324 325 326
312 313 313 311 311 311 313 313 313 313 312 313 313 312 311 311 311 311 312 313 314 316 318 321 321 321 321 322 322 322 322 322 322 322 323 323 323 323 323 323 322 323 325 327
316 315 315 315 314 314 312 311 311 311 311 310 309 308 309 310 310 311 313 314 315 315 317 321 321 322 322 322 321 321 322 322 322 322 323 321 322 323 322 323 323 324 326 327
315 315 315 314 313 311 309 310 310 309 309 309 308 309 308 310 311 312 315 313 314 317 316 315 315 318 318 316 317 316 316 317 320 323 323 323 323 323 324 315 322 326 327 329
313 312 311 310 308 309 308 308 307 307 308 310 309 308 307 309 311 310 309 308 313 314 312 313 312 316 315 314 315 314 314 315 314 319 321 322 322 323 324 325 326 328 328 330
310 309 307 307 306 305 306 305 306 306 306 307 306 307 307 306 307 307 309 308 310 309 310 309 310 313 312 313 311 312 313 316 316 317 318 321 322 324 324 324 325 327 328 329
308 306 306 305 304 303 304 306 306 306 305 305 305 305 304 304 305 303 303 307 307 308 307 308 309 310 310 309 310 312 313 315 317 318 318 321 324 324 325 326 327 328 329 329
305 305 304 304 303 301 300 303 304 305 305 305 305 305 303 302 303 306 305 305 305 305 305 307 307 308 308 308 309 311 311 313 316 318 320 310 323 325 325 325 326 328 330 321
305 304 302 301 299 299 300 302 301 302 303 303 304 304 305 305 303 303 304 304 304 303 304 305 306 306 307 307 309 310 313 319 319 320 320 320 322 322 323 325 327 327 327 325
304 303 302 301 300 299 299 299 298 299 300 299 301 302 303 304 304 303 304 303 303 303 303 303 304 304 306 307 308 311 312 313 312 316 315 319 320 322 323 321 322 321 319 317
303 300 301 300 300 299 299 298 298 297 298 298 298 300 302 302 303 302 302 302 302 302 302 302 303 303 303 304 305 307 307 309 306 309 311 312 313 315 315 314 311 310 308 307
Wind_Speed
2 2 2 2 2 2 6 4 5 3 5 3 4 5 2 3 5 6 6 7 7 7 7 9 7 5 6 4 4 3 6 5 3 4 6 8 11 10 7 7 9 8 7 8
2 2 1 3 4 1 1 2 5 3 3 4 2 2 2 4 6 5 6 6 6 7 8 7 7 7 6 6 6 5 5 4 2 3 4 5 6 6 5 3 6 6 8 8
6 4 4 4 4 1 2 1 2 2 2 1 4 6 4 4 6 5 4 4 5 4 5 4 4 5 7 7 9 11 9 7 5 4 5 9 7 5 4 4 4 4 7 5
3 3 2 7 3 4 5 1 2 3 3 3 4 3 3 2 4 5 4 3 3 2 1 2 2 4 4 5 6 6 6 5 5 5 7 7 5 4 4 5 7 9 10 9
5 4 3 2 6 5 5 3 2 5 5 4 4 3 5 1 1 2 2 3 3 3 2 0 2 2 4 5 5 5 5 4 4 5 4 4 2 2 3 9 13 9 6 6
4 5 7 7 3 3 4 3 6 6 6 6 4 2 4 5 3 4 5 3 3 2 2 3 2 1 3 2 3 2 2 2 4 4 4 4 2 2 4 7 8 7 7 2
3 3 6 4 2 5 6 9 4 6 6 7 4 6 4 5 6 4 5 7 4 4 5 5 5 3 3 2 5 3 2 1 1 3 4 4 3 2 5 6 4 2 4 5
3 2 5 2 3 6 7 2 4 4 4 6 4 2 4 4 4 5 6 3 3 3 5 5 4 3 6 6 4 1 3 3 2 2 3 2 4 3 6 6 3 5 4 7
6 5 4 4 3 1 3 5 3 4 1 2 1 2 2 4 5 5 4 4 3 4 6 6 4 2 6 7 4 5 4 4 3 3 4 5 4 3 3 5 4 5 6 8
3 3 3 4 1 2 4 5 4 3 3 4 3 3 5 6 6 4 5 6 5 6 7 8 7 5 6 7 4 4 5 5 4 4 5 5 5 3 4 6 8 7 8 11
1 4 2 3 0 4 4 5 4 3 3 4 3 2 3 4 5 6 5 3 3 4 5 7 7 8 8 6 4 5 4 5 5 4 6 6 7 8 7 8 8 8 11 8
7 8 5 5 3 3 5 4 4 4 2 1 1 4 3 4 3 2 3 3 4 6 6 8 7 9 10 7 6 6 6 5 5 5 5 5 6 8 12 17 10 14 12 7
4 5 4 2 4 3 5 4 3 2 1 2 2 2 1 1 3 4 5 6 6 8 9 8 10 11 10 9 7 7 8 10 7 6 6 6 5 7 8 10 13 10 12 12
4 8 3 3 5 4 5 5 3 2 1 3 3 1 1 3 4 5 6 6 7 8 10 10 12 13 12 10 8 9 10 12 8 8 7 7 7 7 7 8 11 6 9 11
7 1 2 2 3 3 1 1 1 3 3 4 3 4 4 7 7 7 6 6 7 10 12 11 11 13 11 10 10 10 9 9 8 7 7 8 7 7 7 8 8 8 5 4
2 1 3 4 6 3 3 3 2 4 3 3 4 6 7 6 6 7 7 7 7 12 13 11 13 14 12 12 10 9 10 15 13 8 7 8 7 8 8 8 8 7 6 7
5 3 2 2 2 1 1 2 2 3 4 5 6 6 6 6 7 8 8 10 10 12 11 12 14 12 12 11 11 8 8 9 11 8 8 8 8 8 8 7 7 7 8 8
5 6 5 3 1 1 2 4 4 5 4 5 6 8 9 8 9 10 10 10 10 11 10 11 9 11 12 11 10 8 8 9 9 9 8 8 8 8 8 8 8 8 8 8
8 7 7 7 6 5 5 5 4 4 5 5 7 9 10 9 9 10 10 10 9 11 10 8 14 14 8 10 12 8 8 9 10 8 8 10 9 9 9 8 9 9 8 6
7 6 6 6 6 5 4 4 5 5 6 6 6 9 9 9 11 11 9 9 9 8 9 9 13 10 7 10 14 8 9 10 11 9 8 8 9 9 8 10 8 8 9 7
6 6 7 6 5 5 5 5 5 7 8 8 8 9 10 11 8 9 9 8 9 8 12 14 10 9 6 11 11 9 9 9 10 10 9 8 9 9 9 9 8 7 8 7
3 4 5 4 4 4 5 5 6 8 9 8 9 9 9 9 10 10 8 9 6 15 9 8 8 12 12 20 9 9 9 10 8 9 9 9 9 8 8 7 8 8 8 6
4 3 3 5 5 4 4 7 8 9 9 9 9 9 8 7 7 8 9 9 9 11 10 8 13 19 21 10 8 9 10 10 9 8 9 8 8 7 7 7 7 9 8 6
4 3 3 3 4 4 6 9 8 8 8 8 8 8 9 8 7 4 7 11 15 14 10 10 14 20 20 8 8 9 10 10 9 8 7 8 7 6 5 6 7 7 7 4
5 3 3 5 4 2 3 5 4 5 8 8 8 8 10 6 5 9 8 8 14 12 9 13 19 19 9 8 9 9 9 7 5 4 3 4 5 3 3 4 3 3 3 3
5 3 3 2 1 2 2 3 3 3 5 6 6 7 7 6 7 8 8 10 9 11 8 8 8 10 9 9 9 9 8 7 8 6 6 5 4 3 2 1 2 2 3 3
4 4 3 1 1 1 1 2 3 4 4 4 5 6 7 7 8 9 11 10 9 10 9 9 9 10 10 9 9 8 8 8 8 7 6 6 7 6 5 4 5 5 4 5
Wind_Direction
197 262 210 225 256 212 187 210 168 257 233 328 279 241 264 51 77 49 46 39 31 25 19 10 9 359 343 328 292 221 191 219 250 259 257 268 269 246 226 206 214 208 203 206
278 181 291 285 284 237 182 139 266 299 291 299 273 89 93 100 86 67 46 38 39 38 37 24 21 37 33 1 346 328 1 60 19 289 270 270 247 253 245 220 245 215 218 220
255 10 26 344 238 224 149 121 260 241 275 243 62 77 80 89 95 96 90 81 75 59 44 46 53 57 44 36 54 59 59 48 43 1 23 29 351 10 17 348 310 260 271 225
202 45 230 248 287 188 136 167 19 105 124 98 118 93 78 51 110 87 86 102 91 97 120 4 38 71 64 53 53 61 58 47 26 19 27 53 82 95 68 38 360 20 28 0
148 184 275 41 246 197 178 247 150 139 139 134 129 76 18 46 126 172 226 215 229 230 225 196 68 49 71 58 64 72 58 42 22 28 44 68 53 78 93 84 95 104 87 32
141 156 202 229 194 152 124 297 179 174 173 157 133 100 240 214 214 256 255 256 260 245 272 309 289 100 63 34 14 32 85 37 347 12 34 41 59 78 118 145 143 142 133 244
156 199 286 239 188 148 102 234 158 159 159 161 173 199 218 193 224 224 244 261 262 278 277 281 299 329 320 307 280 228 199 196 347 354 350 335 331 229 212 208 183 89 199 234
101 124 242 69 141 158 209 53 123 139 173 194 211 220 223 235 281 310 292 289 262 258 262 272 271 259 278 281 265 241 205 225 212 265 295 290 301 303 253 264 209 241 220 236
166 219 269 286 274 195 151 127 133 145 135 180 191 233 269 258 269 262 287 322 335 330 317 309 313 265 277 267 337 321 312 291 278 244 263 276 265 253 267 230 226 242 229 243
77 303 332 328 341 79 90 104 118 115 151 157 189 251 281 290 289 293 310 316 334 333 322 312 322 306 245 278 278 263 268 267 257 248 254 252 267 241 230 239 231 226 231 238
288 285 318 302 219 118 100 113 132 154 151 154 163 256 240 257 269 273 290 309 322 317 310 295 306 304 297 288 289 258 245 258 257 240 238 243 238 250 226 229 224 226 242 236
217 208 163 207 202 162 148 164 162 154 134 344 206 243 244 251 225 209 220 278 309 300 288 281 288 285 285 281 264 270 278 274 250 243 250 237 237 261 248 242 229 237 245 240
215 167 177 154 183 161 165 163 146 127 166 253 268 237 157 216 260 272 295 306 299 291 290 292 292 287 281 272 268 266 279 284 274 248 248 248 236 234 256 276 232 254 250 234
182 118 57 207 203 197 181 182 166 137 287 268 249 225 274 261 284 277 275 271 285 291 294 293 287 283 282 274 269 272 276 262 265 264 250 247 242 233 232 255 276 263 235 224
195 282 194 154 145 176 149 95 214 270 272 267 252 258 276 286 279 274 281 291 290 288 286 285 281 283 285 275 261 267 269 270 263 258 251 243 247 243 243 246 253 268 262 176
135 112 112 147 167 179 192 215 271 294 308 293 288 294 290 278 279 282 286 284 289 294 289 289 287 290 295 291 274 270 267 259 251 259 254 250 251 248 246 246 254 239 236 252
124 157 116 88 168 222 308 351 299 298 310 317 312 310 305 293 287 286 289 290 285 282 285 280 280 290 291 288 279 273 271 270 258 255 249 246 247 248 247 246 248 246 248 234
114 98 91 104 131 352 7 35 12 2 352 329 327 317 305 297 286 290 289 288 287 287 291 281 300 298 297 292 288 276 272 273 271 258 254 250 246 247 246 246 248 247 254 244
60 64 68 62 43 39 30 16 2 329 322 319 318 308 295 288 286 286 287 281 288 299 311 335 329 318 322 332 334 320 307 290 277 264 252 248 250 248 250 249 250 252 247 229
57 66 68 69 51 41 356 336 322 313 299 289 286 296 301 306 309 301 303 303 293 301 340 333 324 305 317 319 320 307 296 291 288 271 256 245 245 248 244 244 242 246 257 247
77 67 55 38 13 0 359 340 333 324 314 312 324 323 312 302 313 311 307 306 308 346 327 322 312 302 319 314 313 294 283 281 279 272 266 257 249 243 246 248 245 236 246 241
82 67 54 30 17 2 1 349 346 338 337 330 323 318 320 321 317 310 302 287 332 325 317 309 300 313 318 319 300 288 283 278 268 272 268 261 254 252 252 248 250 251 243 230
94 84 57 30 17 2 339 6 356 344 338 337 331 330 330 319 317 318 318 331 317 319 316 305 309 316 318 312 295 289 288 285 280 269 270 262 254 248 243 243 250 255 245 219
110 85 76 55 41 13 11 7 6 0 355 340 333 337 334 332 329 324 313 312 319 323 313 307 314 322 323 306 302 298 292 283 276 272 267 268 259 257 262 266 263 253 241 204
123 117 79 67 47 354 331 347 330 357 0 354 349 351 346 339 329 325 324 325 326 327 318 319 326 325 319 316 311 307 303 310 294 300 300 299 292 289 295 292 292 284 253 208
145 146 129 114 162 300 342 354 8 357 355 352 346 350 342 336 333 335 335 336 333 332 333 331 331 332 328 329 322 326 331 341 345 345 355 341 309 291 303 354 346 40 63 70
147 137 127 102 260 269 347 18 17 354 349 348 339 347 336 338 342 345 347 349 350 350 347 344 345 349 344 345 342 348 352 354 1 1 18 12 13 20 35 54 54 53 62 78